• en France
  • Liste des pays
  • À 7 jours
  • Température de l'eau
  • Carte satellitaire
  • Carte météo
  • Widgets météo
  • user-avatar
    Se connecter

    Météo par heure à San José

    Ce jour, 20 Février, Mardi

    Heure Température Précipitation Vent Pression Humidité
    00:00 +17°C° 0 mm 2 m/s 663 mmHg 79%
    01:00 +17°C° 0 mm 2 m/s 662 mmHg 79%
    02:00 +16°C° 0 mm 2 m/s 662 mmHg 78%
    03:00 +16°C° 0 mm 2 m/s 662 mmHg 78%
    04:00 +16°C° 0 mm 2 m/s 662 mmHg 76%
    05:00 +16°C° 0 mm 2 m/s 662 mmHg 75%
    06:00 +16°C° 0 mm 2 m/s 663 mmHg 76%
    07:00 +19°C° 0 mm 2 m/s 663 mmHg 65%
    08:00 +21°C° 0 mm 2 m/s 664 mmHg 55%
    09:00 +25°C° 0 mm 2 m/s 665 mmHg 44%
    10:00 +26°C° 0 mm 2 m/s 665 mmHg 44%
    11:00 +27°C° 0 mm 3 m/s 665 mmHg 44%
    12:00 +28°C° 0 mm 3 m/s 665 mmHg 43%
    13:00 +28°C° 0 mm 3 m/s 665 mmHg 47%
    14:00 +27°C° 0 mm 3 m/s 665 mmHg 50%
    15:00 +26°C° 0 mm 2 m/s 664 mmHg 54%
    16:00 +24°C° 0 mm 2 m/s 664 mmHg 64%
    17:00 +21°C° 0 mm 2 m/s 663 mmHg 74%
    18:00 +20°C° 0 mm 1 m/s 663 mmHg 84%
    19:00 +19°C° 0 mm 1 m/s 663 mmHg 83%
    20:00 +18°C° 0 mm 2 m/s 663 mmHg 82%
    21:00 +17°C° 0 mm 2 m/s 663 mmHg 81%
    22:00 +17°C° 0 mm 2 m/s 663 mmHg 80%
    23:00 +17°C° 0 mm 2 m/s 663 mmHg 80%

    Demain, 21 Février, Mercredi

    Heure Température Précipitation Vent Pression Humidité
    00:00 +18°C° 0 mm 2 m/s 663 mmHg 79%
    01:00 +18°C° 0 mm 2 m/s 663 mmHg 80%
    02:00 +18°C° 0 mm 2 m/s 663 mmHg 81%
    03:00 +18°C° 0 mm 2 m/s 663 mmHg 82%
    04:00 +17°C° 0 mm 2 m/s 663 mmHg 82%
    05:00 +18°C° 0 mm 1 m/s 663 mmHg 82%
    06:00 +18°C° 0 mm 1 m/s 663 mmHg 82%
    07:00 +19°C° 0 mm 2 m/s 664 mmHg 74%
    08:00 +21°C° 0 mm 2 m/s 665 mmHg 65%
    09:00 +25°C° 0 mm 2 m/s 666 mmHg 57%
    10:00 +26°C° 0 mm 2 m/s 666 mmHg 55%
    11:00 +27°C° 0 mm 2 m/s 666 mmHg 52%
    12:00 +28°C° 0 mm 2 m/s 666 mmHg 49%
    13:00 +27°C° 0,1 mm 2 m/s 665 mmHg 53%
    14:00 +26°C° 0,1 mm 2 m/s 665 mmHg 57%
    15:00 +25°C° 0,1 mm 2 m/s 664 mmHg 60%
    16:00 +23°C° 0,1 mm 2 m/s 664 mmHg 69%
    17:00 +21°C° 0,1 mm 1 m/s 663 mmHg 78%
    18:00 +20°C° 0,1 mm 1 m/s 663 mmHg 87%
    19:00 +19°C° 0 mm 1 m/s 663 mmHg 86%
    20:00 +19°C° 0 mm 1 m/s 664 mmHg 86%
    21:00 +18°C° 0 mm 1 m/s 664 mmHg 85%
    22:00 +18°C° 0 mm 1 m/s 664 mmHg 83%
    23:00 +18°C° 0 mm 1 m/s 664 mmHg 82%

    Après-demain, 22 Février, Jeudi

    Heure Température Précipitation Vent Pression Humidité
    00:00 +18°C° 0 mm 1 m/s 664 mmHg 80%
    01:00 +18°C° 0 mm 1 m/s 664 mmHg 81%
    02:00 +18°C° 0 mm 1 m/s 663 mmHg 81%
    03:00 +18°C° 0 mm 1 m/s 663 mmHg 82%
    04:00 +18°C° 0 mm 1 m/s 663 mmHg 82%
    05:00 +19°C° 0 mm 1 m/s 663 mmHg 82%
    06:00 +18°C° 0 mm 2 m/s 664 mmHg 82%
    07:00 +19°C° 0 mm 2 m/s 665 mmHg 75%
    08:00 +21°C° 0 mm 2 m/s 666 mmHg 67%
    09:00 +24°C° 0 mm 2 m/s 667 mmHg 59%
    10:00 +25°C° 0,1 mm 2 m/s 667 mmHg 57%
    11:00 +26°C° 0,1 mm 2 m/s 666 mmHg 55%
    12:00 +27°C° 0,1 mm 2 m/s 666 mmHg 53%
    13:00 +26°C° 0,2 mm 2 m/s 665 mmHg 55%
    14:00 +26°C° 0,2 mm 2 m/s 665 mmHg 58%
    15:00 +25°C° 0,2 mm 2 m/s 664 mmHg 61%
    16:00 +23°C° 0,1 mm 2 m/s 663 mmHg 68%
    17:00 +21°C° 0,1 mm 1 m/s 663 mmHg 75%
    18:00 +19°C° 0,1 mm 1 m/s 663 mmHg 82%
    19:00 +19°C° 0 mm 1 m/s 663 mmHg 81%
    20:00 +17°C° 0 mm 2 m/s 664 mmHg 80%
    21:00 +17°C° 0 mm 2 m/s 664 mmHg 78%
    22:00 +17°C° 0 mm 2 m/s 664 mmHg 78%
    23:00 +17°C° 0 mm 2 m/s 664 mmHg 77%

    23 Février, Vendredi

    Heure Température Précipitation Vent Pression Humidité
    00:00 +16°C° 0 mm 2 m/s 663 mmHg 76%
    01:00 +17°C° 0 mm 2 m/s 663 mmHg 77%
    02:00 +17°C° 0 mm 2 m/s 663 mmHg 78%
    03:00 +17°C° 0 mm 2 m/s 663 mmHg 78%
    04:00 +17°C° 0,1 mm 2 m/s 663 mmHg 80%
    05:00 +17°C° 0,1 mm 2 m/s 663 mmHg 81%
    06:00 +17°C° 0,1 mm 2 m/s 663 mmHg 82%
    07:00 +18°C° 0,1 mm 2 m/s 664 mmHg 77%
    08:00 +20°C° 0,1 mm 2 m/s 665 mmHg 72%
    09:00 +21°C° 0,1 mm 2 m/s 666 mmHg 67%
    10:00 +24°C° 0 mm 2 m/s 666 mmHg 60%
    11:00 +26°C° 0 mm 2 m/s 666 mmHg 52%
    12:00 +28°C° 0 mm 3 m/s 666 mmHg 45%
    13:00 +27°C° 0 mm 2 m/s 665 mmHg 47%
    14:00 +26°C° 0 mm 2 m/s 664 mmHg 48%
    15:00 +26°C° 0 mm 2 m/s 663 mmHg 50%
    16:00 +24°C° 0 mm 2 m/s 663 mmHg 60%
    17:00 +21°C° 0 mm 2 m/s 663 mmHg 70%
    18:00 +19°C° 0 mm 1 m/s 662 mmHg 80%
    19:00 +19°C° 0 mm 1 m/s 663 mmHg 80%
    20:00 +18°C° 0 mm 1 m/s 663 mmHg 80%
    21:00 +17°C° 0 mm 2 m/s 663 mmHg 79%
    22:00 +16°C° 0 mm 2 m/s 663 mmHg 77%
    23:00 +16°C° 0 mm 2 m/s 663 mmHg 75%

    24 Février, Samedi

    Heure Température Précipitation Vent Pression Humidité
    00:00 +16°C° 0 mm 1 m/s 663 mmHg 72%
    01:00 +16°C° 0 mm 1 m/s 662 mmHg 73%
    02:00 +16°C° 0 mm 1 m/s 662 mmHg 73%
    03:00 +15°C° 0 mm 1 m/s 661 mmHg 74%
    04:00 +15°C° 0 mm 1 m/s 662 mmHg 74%
    05:00 +15°C° 0 mm 1 m/s 662 mmHg 74%
    06:00 +15°C° 0 mm 1 m/s 662 mmHg 74%
    07:00 +19°C° 0 mm 1 m/s 663 mmHg 65%
    08:00 +22°C° 0 mm 1 m/s 664 mmHg 56%
    09:00 +25°C° 0 mm 1 m/s 666 mmHg 47%
    10:00 +26°C° 0 mm 2 m/s 665 mmHg 45%
    11:00 +27°C° 0 mm 2 m/s 665 mmHg 43%
    12:00 +28°C° 0 mm 2 m/s 665 mmHg 42%
    13:00 +26°C° 0,1 mm 2 m/s 664 mmHg 48%
    14:00 +25°C° 0,1 mm 2 m/s 663 mmHg 55%
    15:00 +24°C° 0,1 mm 2 m/s 662 mmHg 61%
    16:00 +22°C° 0,2 mm 1 m/s 662 mmHg 70%
    17:00 +21°C° 0,2 mm 1 m/s 662 mmHg 78%
    18:00 +19°C° 0,2 mm 1 m/s 662 mmHg 87%
    19:00 +19°C° 0 mm 1 m/s 662 mmHg 88%
    20:00 +18°C° 0 mm 1 m/s 663 mmHg 89%
    21:00 +18°C° 0 mm 1 m/s 663 mmHg 90%
    22:00 +18°C° 0 mm 1 m/s 663 mmHg 89%
    23:00 +16°C° 0 mm 1 m/s 663 mmHg 88%

    25 Février, Dimanche

    Heure Température Précipitation Vent Pression Humidité
    00:00 +16°C° 0 mm 1 m/s 663 mmHg 87%
    01:00 +16°C° 0 mm 1 m/s 662 mmHg 86%
    02:00 +15°C° 0 mm 1 m/s 662 mmHg 84%
    03:00 +15°C° 0 mm 1 m/s 662 mmHg 82%
    04:00 +15°C° 0 mm 1 m/s 662 mmHg 80%
    05:00 +15°C° 0 mm 1 m/s 662 mmHg 79%
    06:00 +15°C° 0 mm 1 m/s 662 mmHg 77%
    07:00 +19°C° 0 mm 1 m/s 664 mmHg 68%
    08:00 +22°C° 0 mm 1 m/s 665 mmHg 60%
    09:00 +25°C° 0 mm 1 m/s 666 mmHg 51%
    10:00 +25°C° 0,2 mm 1 m/s 666 mmHg 51%
    11:00 +26°C° 0,2 mm 2 m/s 665 mmHg 52%
    12:00 +26°C° 0,2 mm 2 m/s 665 mmHg 53%
    13:00 +26°C° 0,6 mm 2 m/s 664 mmHg 57%
    14:00 +25°C° 0,6 mm 2 m/s 664 mmHg 61%
    15:00 +24°C° 0,6 mm 1 m/s 663 mmHg 65%
    16:00 +23°C° 0,4 mm 1 m/s 663 mmHg 72%
    17:00 +21°C° 0,4 mm 1 m/s 663 mmHg 80%
    18:00 +19°C° 0,4 mm 1 m/s 662 mmHg 87%
    19:00 +19°C° 0,1 mm 1 m/s 663 mmHg 88%
    20:00 +19°C° 0,1 mm 1 m/s 663 mmHg 89%
    21:00 +18°C° 0,1 mm 1 m/s 664 mmHg 90%
    22:00 +18°C° 0 mm 1 m/s 663 mmHg 89%
    23:00 +18°C° 0 mm 1 m/s 663 mmHg 89%
    Voir plus